Regional Weather Roundup
Issued by NWS Sterling, VA

Home | Current Version | Previous Version | Graphics & Text | Print | Product List | Glossary On
Versions: 1 2 3 4 5 6 7 8 9 10 11 12 13 14 15 16 17 18 19 20 21 22 23 24 25 26 27 28 29 30 31 32 33 34 35 36 37 38 39 40 41 42 43 44 45 46 47 48 49 50
000
ASUS41 KLWX 010010
RWRLWX

REGIONAL WEATHER ROUNDUP
NATIONAL WEATHER SERVICE BALTIMORE MD/WASHINGTON DC
800 PM EDT THU JUL 31 2014

Note: "FAIR" indicates few or no clouds below 12,000 feet
with no significant weather and/or obstructions to visibility.
 TC=TEMPERATURE CELSIUS

 * =Non NWS site. Station does not report precipitation (e.g. rain,
    snow, etc.), thunder, or fog.

DCZ001-MDZ009-015-VAZ040>042-051-053>054-010100-
WASHINGTON METRO
  /KDAA//-FT BELVOIR

CITY           SKY/WX    TMP DP  RH WIND       PRES   REMARKS
WASHINGTON NAT MOCLDY    84  64  50 S13       30.10R
DULLES         MOCLDY    79  59  50 S8        30.10R
ANDREWS AFB    MOCLDY    78  65  64 S9        30.11R
QUANTICO       MOCLDY    80  64  58 SW6       30.11R
COLLEGE PARK*  MOCLDY    82  55  39 S3        30.09R
LEESBURG*      MOCLDY    81  63  54 CALM      30.11R
MANASSAS*      CLEAR     81  66  61 S7        30.10
GAITHERSBURG*  MOCLDY    81  57  44 S5        30.14R

$$

MDZ006>007-011-014-010100-
BALTIMORE METRO

CITY           SKY/WX    TMP DP  RH WIND       PRES   REMARKS
BWI AIRPORT    MOCLDY    79  66  64 SE5       30.09R
MD SCIENCE CTR   N/A     81  66  60 MISG      30.10R
MARTIN STATE   PTCLDY    81  70  69 S14       30.10S
ANNAPOLIS      MOCLDY    79  65  62 S8        30.10R
FORT MEADE*    MOCLDY    75  68  78 SE5       30.12R

$$

MDZ012-015-019>023-010100-
MARYLAND EASTERN SHORE

CITY           SKY/WX    TMP DP  RH WIND       PRES   REMARKS
OCEAN CITY     CLOUDY    75  68  78 SW7       30.14R
SALISBURY      MOCLDY    79  67  66 S5        30.13R
BAY BRIDGE AP*   N/A     79  64  61 S8        30.11R
CAMBRIDGE*     MOCLDY    79  68  69 CALM      30.12R
EASTON*        PTCLDY    81  66  61 S7        30.15R

$$

MDZ017>025-010100-
SOUTHERN MARYLAND

CITY           SKY/WX    TMP DP  RH WIND       PRES   REMARKS
PATUXENT RIVER MOCLDY    78  65  63 S5        30.11R
ST INIGOES     MOCLDY    78  66  66 S6        30.11R
LEONARDTOWN*   MOCLDY    79  63  57 CALM      30.13R

$$

MDZ003>005-010100-
NORTH CENTRAL MARYLAND

CITY           SKY/WX    TMP DP  RH WIND       PRES   REMARKS
FREDERICK*     NOT AVBL
HAGERSTOWN APT CLEAR     79  60  52 S12       30.10S
WESTMINSTER*   MOCLDY    81  63  54 CALM      30.12R

$$

MDZ501>502-010100-
WESTERN MARYLAND

CITY           SKY/WX    TMP DP  RH WIND       PRES   REMARKS
OAKLAND*       PTCLDY    64  59  82 CALM      30.20S
CUMBERLAND*    PTCLDY    81  54  39 W6        30.14R

$$

VAZ025>031-010100-
SHENANDOAH VALLEY

CITY           SKY/WX    TMP DP  RH WIND       PRES   REMARKS
WINCHESTER*    PTCLDY    77  61  57 CALM      30.10S
STAUNTON*      MOCLDY    77  61  58 S7        30.14R

$$

WVZ021-048>050-054>055-010100-
EASTERN WEST VIRGINIA PANHANDLE

CITY           SKY/WX    TMP DP  RH WIND       PRES   REMARKS
MARTINSBURG    PTCLDY    75  59  57 SE6       30.11R
PETERSBURG*    PTCLDY    78  61  55 E3        30.12R

$$

VAZ036>039-050-010100-
CENTRAL FOOTHILLS

CITY           SKY/WX    TMP DP  RH WIND       PRES   REMARKS
CHARLOTTESVILL MOCLDY    77  61  57 S9        30.12R
ORANGE*        MOCLDY    77  61  57 SE3       30.13R

$$

VAZ055>057-010100-
NORTH AND CENTRAL PIEDMONT

CITY           SKY/WX    TMP DP  RH WIND       PRES   REMARKS
FREDERICKSBRG* MOCLDY    79  67  65 S6        30.10R
STAFFORD*      MOCLDY    78  65  64 S3        30.15R

$$

NCZ024-NYZ072-PAZ021-071-VAZ022-071-010100-
OTHER REGIONAL OBSERVATIONS

CITY           SKY/WX    TMP DP  RH WIND       PRES   REMARKS
NEW YORK CITY  MOCLDY    76  62  62 VRB3      30.13R
PHILADELPHIA   MOCLDY    81  63  54 S10       30.11R
PITTSBURGH     PTCLDY    74  59  59 SW3       30.10S
ROANOKE        CLOUDY    75  63  66 S9        30.16R
RICHMOND       CLOUDY    80  66  62 S7        30.12R
RALEIGH        CLOUDY    76  68  76 CALM      30.13S

$$

ANZ530>537-010100-
MARINE OBSERVATIONS

STATION/POSITION TIME  TEMP    WIND        PRES
                       AIR SEA DIR/SP/G
                 (UTC) (F)     (DEG/KT/KT) (MB)
THOMAS PT LIGHT  0000   79 78  170/ 13/ 14 1019.8R
BALT KEY BRIDGE  0000   80     150/ 12/ 14 1018.4R
COVE POINT       0000   79     210/ 10/ 11 1019.5R
LEWISETTA        0000   78 79  190/  6/  7 1019.7R
SOLOMONS ISLAND  0000      80                N/A
PINEY POINT      0000          200/  9/ 10   N/A

$$



USA.gov is the U.S. government's official web portal to all federal, state and local government web resources and services.